Time,TemperatureF,DewpointF,PressureIn,WindDirection,WindDirectionDegrees,WindSpeedMPH,WindSpeedGustMPH,Humidity,HourlyPrecipIn,Conditions,Clouds,dailyrainin,SolarRadiationWatts/m^2,SoftwareType,DateUTC
2013-06-27 00:01:00,72.0,56.0,26.68,WNW,288,2.0,6.0,58,0.00,,,0.00,0.000000,,2013-06-27 06:01:00,
2013-06-27 00:12:00,72.0,56.0,26.68,WNW,288,2.0,6.0,58,0.00,,,0.00,0.000000,,2013-06-27 06:12:00,
2013-06-27 00:22:00,71.0,56.0,26.68,WNW,288,0.0,1.0,59,0.00,,,0.00,0.000000,,2013-06-27 06:22:00,
2013-06-27 00:34:00,71.0,56.0,26.69,WNW,288,0.0,1.0,59,0.00,,,0.00,0.000000,,2013-06-27 06:34:00,
2013-06-27 00:43:00,71.0,56.0,26.69,WNW,288,0.0,1.0,59,0.00,,,0.00,0.000000,,2013-06-27 06:43:00,
2013-06-27 00:53:00,71.0,56.0,26.68,WNW,288,0.0,0.0,59,0.00,,,0.00,0.000000,,2013-06-27 06:53:00,
2013-06-27 01:02:00,71.0,56.0,26.69,WNW,288,1.0,5.0,60,0.00,,,0.00,0.000000,,2013-06-27 07:02:00,
2013-06-27 01:12:00,71.0,56.0,26.69,WNW,288,1.0,5.0,60,0.00,,,0.00,0.000000,,2013-06-27 07:12:00,
2013-06-27 01:22:00,71.0,56.0,26.69,WNW,289,1.0,5.0,59,0.00,,,0.00,0.000000,,2013-06-27 07:22:00,
2013-06-27 01:33:00,70.0,55.0,26.69,WNW,289,0.0,5.0,58,0.00,,,0.00,0.000000,,2013-06-27 07:33:00,
2013-06-27 01:42:00,70.0,55.0,26.69,WNW,289,0.0,5.0,58,0.00,,,0.00,0.000000,,2013-06-27 07:42:00,
2013-06-27 01:52:00,70.0,55.0,26.69,WNW,290,0.0,2.0,58,0.00,,,0.00,0.000000,,2013-06-27 07:52:00,
2013-06-27 02:01:00,70.0,55.0,26.69,WNW,290,0.0,0.0,59,0.00,,,0.00,0.000000,,2013-06-27 08:01:00,
2013-06-27 02:11:00,70.0,55.0,26.69,WNW,290,0.0,0.0,59,0.00,,,0.00,0.000000,,2013-06-27 08:11:00,
2013-06-27 02:22:00,69.0,55.0,26.69,WNW,290,0.0,0.0,60,0.00,,,0.00,0.000000,,2013-06-27 08:22:00,
2013-06-27 02:34:00,69.0,55.0,26.69,WNW,290,0.0,1.0,60,0.00,,,0.00,0.000000,,2013-06-27 08:34:00,
2013-06-27 02:43:00,69.0,55.0,26.69,WNW,290,0.0,1.0,60,0.00,,,0.00,0.000000,,2013-06-27 08:43:00,
2013-06-27 02:52:00,69.0,55.0,26.69,WNW,290,0.0,1.0,60,0.00,,,0.00,0.000000,,2013-06-27 08:52:00,
2013-06-27 03:02:00,68.0,54.0,26.69,WNW,290,0.0,4.0,61,0.00,,,0.00,0.000000,,2013-06-27 09:02:00,
2013-06-27 03:11:00,68.0,54.0,26.69,WNW,290,0.0,4.0,61,0.00,,,0.00,0.000000,,2013-06-27 09:11:00,
2013-06-27 03:22:00,68.0,54.0,26.69,WNW,288,3.0,7.0,62,0.00,,,0.00,0.000000,,2013-06-27 09:22:00,
2013-06-27 03:34:00,67.0,54.0,26.69,WNW,288,1.0,6.0,62,0.00,,,0.00,0.000000,,2013-06-27 09:34:00,
2013-06-27 03:43:00,67.0,54.0,26.69,WNW,288,1.0,6.0,62,0.00,,,0.00,0.000000,,2013-06-27 09:43:00,
2013-06-27 03:53:00,67.0,54.0,26.70,WNW,287,0.0,5.0,62,0.00,,,0.00,0.000000,,2013-06-27 09:53:00,
2013-06-27 04:01:00,67.0,54.0,26.70,WNW,288,0.0,5.0,62,0.00,,,0.00,0.000000,,2013-06-27 10:01:00,
2013-06-27 04:11:00,67.0,54.0,26.70,WNW,288,0.0,5.0,62,0.00,,,0.00,0.000000,,2013-06-27 10:11:00,
2013-06-27 04:22:00,67.0,54.0,26.70,WNW,287,1.0,4.0,62,0.00,,,0.00,0.000000,,2013-06-27 10:22:00,
2013-06-27 04:32:00,67.0,54.0,26.71,WNW,287,0.0,2.0,62,0.00,,,0.00,0.000000,,2013-06-27 10:32:00,
2013-06-27 04:43:00,67.0,54.0,26.71,WNW,287,0.0,2.0,62,0.00,,,0.00,0.000000,,2013-06-27 10:43:00,
2013-06-27 04:54:00,67.0,53.0,26.71,WNW,296,1.0,5.0,61,0.00,,,0.00,0.000000,,2013-06-27 10:54:00,
2013-06-27 05:01:00,66.0,52.0,26.71,WNW,295,0.0,4.0,61,0.00,,,0.00,0.000000,,2013-06-27 11:01:00,
2013-06-27 05:11:00,66.0,52.0,26.71,WNW,295,0.0,4.0,61,0.00,,,0.00,0.000000,,2013-06-27 11:11:00,
2013-06-27 05:21:00,66.0,53.0,26.72,WNW,296,0.0,0.0,63,0.00,,,0.00,0.000000,,2013-06-27 11:21:00,
2013-06-27 05:33:00,66.0,53.0,26.72,WNW,295,2.0,6.0,62,0.00,,,0.00,5.000000,,2013-06-27 11:33:00,
2013-06-27 05:43:00,66.0,53.0,26.72,WNW,295,2.0,6.0,62,0.00,,,0.00,5.000000,,2013-06-27 11:43:00,
2013-06-27 05:52:00,67.0,53.0,26.72,West,281,1.0,3.0,60,0.00,,,0.00,12.000000,,2013-06-27 11:52:00,
2013-06-27 06:01:00,67.0,53.0,26.72,West,281,0.0,2.0,61,0.00,,,0.00,21.000000,,2013-06-27 12:01:00,
2013-06-27 06:11:00,67.0,53.0,26.72,West,281,0.0,2.0,61,0.00,,,0.00,21.000000,,2013-06-27 12:11:00,
2013-06-27 06:22:00,67.0,53.0,26.72,West,281,0.0,2.0,60,0.00,,,0.00,44.000000,,2013-06-27 12:22:00,
2013-06-27 06:34:00,68.0,53.0,26.72,WNW,285,2.0,6.0,58,0.00,,,0.00,79.000000,,2013-06-27 12:34:00,
2013-06-27 06:42:00,68.0,53.0,26.72,WNW,285,2.0,6.0,58,0.00,,,0.00,79.000000,,2013-06-27 12:42:00,
2013-06-27 07:01:00,70.0,53.0,26.73,WNW,292,0.0,4.0,55,0.00,,,0.00,179.000000,,2013-06-27 13:01:00,
2013-06-27 07:11:00,70.0,53.0,26.73,WNW,292,0.0,4.0,55,0.00,,,0.00,179.000000,,2013-06-27 13:11:00,
2013-06-27 07:22:00,71.0,54.0,26.74,WNW,300,0.0,4.0,54,0.00,,,0.00,232.000000,,2013-06-27 13:22:00,
2013-06-27 07:34:00,72.0,53.0,26.74,WNW,300,2.0,5.0,52,0.00,,,0.00,278.000000,,2013-06-27 13:34:00,
2013-06-27 07:43:00,72.0,53.0,26.74,WNW,300,2.0,5.0,52,0.00,,,0.00,278.000000,,2013-06-27 13:43:00,
2013-06-27 07:52:00,73.0,54.0,26.74,WNW,288,1.0,5.0,52,0.00,,,0.00,322.000000,,2013-06-27 13:52:00,
2013-06-27 08:01:00,74.0,54.0,26.75,WNW,288,0.0,2.0,50,0.00,,,0.00,367.000000,,2013-06-27 14:01:00,
2013-06-27 08:11:00,74.0,54.0,26.75,WNW,288,0.0,2.0,50,0.00,,,0.00,367.000000,,2013-06-27 14:11:00,
2013-06-27 08:22:00,76.0,54.0,26.75,WNW,287,2.0,4.0,47,0.00,,,0.00,411.000000,,2013-06-27 14:22:00,
2013-06-27 08:33:00,77.0,53.0,26.75,WNW,287,1.0,4.0,43,0.00,,,0.00,459.000000,,2013-06-27 14:33:00,
2013-06-27 08:43:00,77.0,53.0,26.75,WNW,287,1.0,4.0,43,0.00,,,0.00,459.000000,,2013-06-27 14:43:00,
2013-06-27 08:52:00,78.0,54.0,26.75,WNW,288,2.0,5.0,44,0.00,,,0.00,499.000000,,2013-06-27 14:52:00,
2013-06-27 09:11:00,78.0,54.0,26.75,WNW,285,2.0,5.0,44,0.00,,,0.00,543.000000,,2013-06-27 15:11:00,
2013-06-27 09:22:00,78.0,55.0,26.75,SSE,148,1.0,5.0,45,0.00,,,0.00,589.000000,,2013-06-27 15:22:00,
2013-06-27 09:33:00,79.0,55.0,26.75,SE,128,4.0,8.0,44,0.00,,,0.00,628.000000,,2013-06-27 15:33:00,
2013-06-27 09:42:00,79.0,55.0,26.75,SE,128,4.0,8.0,44,0.00,,,0.00,628.000000,,2013-06-27 15:42:00,
2013-06-27 09:52:00,78.0,54.0,26.74,ESE,113,3.0,8.0,44,0.00,,,0.00,666.000000,,2013-06-27 15:52:00,
2013-06-27 10:02:00,78.0,53.0,26.74,SW,232,6.0,13.0,42,0.00,,,0.00,705.000000,,2013-06-27 16:02:00,
2013-06-27 10:11:00,78.0,53.0,26.74,SW,232,6.0,13.0,42,0.00,,,0.00,705.000000,,2013-06-27 16:11:00,
2013-06-27 10:23:00,79.0,55.0,26.73,ESE,115,9.0,14.0,43,0.00,,,0.00,745.000000,,2013-06-27 16:23:00,
2013-06-27 10:43:00,79.0,54.0,26.73,South,171,8.0,16.0,42,0.00,,,0.00,780.000000,,2013-06-27 16:43:00,
2013-06-27 10:53:00,80.0,55.0,26.73,ESE,113,7.0,13.0,43,0.00,,,0.00,849.000000,,2013-06-27 16:53:00,
2013-06-27 11:01:00,80.0,55.0,26.73,ESE,105,7.0,14.0,42,0.00,,,0.00,875.000000,,2013-06-27 17:01:00,
2013-06-27 11:11:00,80.0,55.0,26.73,ESE,105,7.0,14.0,42,0.00,,,0.00,875.000000,,2013-06-27 17:11:00,
2013-06-27 11:22:00,81.0,56.0,26.73,ESE,121,6.0,16.0,43,0.00,,,0.00,879.000000,,2013-06-27 17:22:00,
2013-06-27 11:33:00,81.0,55.0,26.74,ESE,119,8.0,16.0,41,0.00,,,0.00,905.000000,,2013-06-27 17:33:00,
2013-06-27 11:43:00,81.0,55.0,26.74,ESE,119,8.0,16.0,41,0.00,,,0.00,905.000000,,2013-06-27 17:43:00,
2013-06-27 11:53:00,82.0,57.0,26.74,ESE,118,6.0,16.0,43,0.00,,,0.00,954.000000,,2013-06-27 17:53:00,
2013-06-27 12:01:00,83.0,58.0,26.74,ESE,116,4.0,11.0,42,0.00,,,0.00,930.000000,,2013-06-27 18:01:00,
2013-06-27 12:11:00,83.0,58.0,26.74,ESE,116,4.0,11.0,42,0.00,,,0.00,930.000000,,2013-06-27 18:11:00,
2013-06-27 12:22:00,83.0,58.0,26.74,ESE,119,4.0,13.0,42,0.00,,,0.00,944.000000,,2013-06-27 18:22:00,
2013-06-27 12:32:00,83.0,58.0,26.75,East,92,4.0,11.0,42,0.00,,,0.00,954.000000,,2013-06-27 18:32:00,
2013-06-27 12:44:00,83.0,58.0,26.75,East,92,4.0,11.0,42,0.00,,,0.00,954.000000,,2013-06-27 18:44:00,
2013-06-27 12:52:00,84.0,57.0,26.74,SE,126,7.0,10.0,40,0.00,,,0.00,962.000000,,2013-06-27 18:52:00,
2013-06-27 13:23:00,84.0,58.0,26.74,ESE,106,7.0,12.0,41,0.00,,,0.00,983.000000,,2013-06-27 19:23:00,
2013-06-27 13:33:00,86.0,59.0,26.73,ESE,120,4.0,8.0,40,0.00,,,0.00,986.000000,,2013-06-27 19:33:00,
2013-06-27 13:42:00,86.0,59.0,26.73,ESE,120,4.0,8.0,40,0.00,,,0.00,986.000000,,2013-06-27 19:42:00,
2013-06-27 13:53:00,85.0,57.0,26.73,ESE,119,8.0,12.0,38,0.00,,,0.00,981.000000,,2013-06-27 19:53:00,
2013-06-27 14:01:00,85.0,57.0,26.72,ESE,103,7.0,12.0,39,0.00,,,0.00,1111.000000,,2013-06-27 20:01:00,
2013-06-27 14:11:00,85.0,57.0,26.72,ESE,103,7.0,12.0,39,0.00,,,0.00,1111.000000,,2013-06-27 20:11:00,
2013-06-27 14:22:00,87.0,58.0,26.72,ESE,109,3.0,8.0,38,0.00,,,0.00,1056.000000,,2013-06-27 20:22:00,
2013-06-27 14:36:00,86.0,57.0,26.72,NNE,28,5.0,8.0,38,0.00,,,0.00,1005.000000,,2013-06-27 20:36:00,
2013-06-27 14:45:00,86.0,57.0,26.72,NNE,28,5.0,8.0,38,0.00,,,0.00,1005.000000,,2013-06-27 20:45:00,
2013-06-27 14:55:00,89.0,59.0,26.72,ESE,111,3.0,9.0,36,0.00,,,0.00,1086.000000,,2013-06-27 20:55:00,
2013-06-27 15:03:00,89.0,59.0,26.72,East,94,3.0,8.0,36,0.00,,,0.00,907.000000,,2013-06-27 21:03:00,
2013-06-27 15:13:00,89.0,59.0,26.72,East,94,3.0,8.0,36,0.00,,,0.00,907.000000,,2013-06-27 21:13:00,
2013-06-27 15:24:00,91.0,59.0,26.72,NE,34,3.0,7.0,34,0.00,,,0.00,925.000000,,2013-06-27 21:24:00,
2013-06-27 15:34:00,89.0,59.0,26.72,NE,43,5.0,8.0,36,0.00,,,0.00,872.000000,,2013-06-27 21:34:00,
2013-06-27 15:45:00,89.0,59.0,26.72,NE,43,5.0,8.0,36,0.00,,,0.00,872.000000,,2013-06-27 21:45:00,
2013-06-27 15:55:00,88.0,57.0,26.72,ENE,59,8.0,11.0,35,0.00,,,0.00,874.000000,,2013-06-27 21:55:00,
2013-06-27 16:05:00,88.0,59.0,26.72,ENE,67,5.0,9.0,38,0.00,,,0.00,807.000000,,2013-06-27 22:05:00,
2013-06-27 16:13:00,88.0,59.0,26.72,ENE,67,5.0,9.0,38,0.00,,,0.00,807.000000,,2013-06-27 22:13:00,
2013-06-27 16:33:00,87.0,58.0,26.72,NNW,335,11.0,18.0,38,0.00,,,0.00,714.000000,,2013-06-27 22:33:00,
2013-06-27 16:47:00,87.0,58.0,26.72,NNW,335,11.0,18.0,38,0.00,,,0.00,714.000000,,2013-06-27 22:47:00,
2013-06-27 16:57:00,87.0,58.0,26.72,North,360,6.0,13.0,38,0.00,,,0.00,687.000000,,2013-06-27 22:57:00,
2013-06-27 17:03:00,87.0,58.0,26.72,NNW,338,7.0,11.0,37,0.00,,,0.00,663.000000,,2013-06-27 23:03:00,
2013-06-27 17:15:00,87.0,58.0,26.72,NNW,338,7.0,11.0,37,0.00,,,0.00,663.000000,,2013-06-27 23:15:00,
2013-06-27 17:25:00,87.0,58.0,26.72,NE,40,7.0,12.0,38,0.00,,,0.00,624.000000,,2013-06-27 23:25:00,
2013-06-27 17:34:00,88.0,59.0,26.72,NE,45,6.0,15.0,38,0.00,,,0.00,568.000000,,2013-06-27 23:34:00,
2013-06-27 17:44:00,88.0,59.0,26.72,NE,45,6.0,15.0,38,0.00,,,0.00,568.000000,,2013-06-27 23:44:00,
2013-06-27 17:58:00,87.0,58.0,26.72,ENE,67,9.0,18.0,37,0.00,,,0.00,517.000000,,2013-06-27 23:58:00,
2013-06-27 18:13:00,87.0,55.0,26.72,North,5,9.0,18.0,34,0.00,,,0.00,473.000000,,2013-06-28 00:13:00,
2013-06-27 18:26:00,87.0,55.0,26.72,North,360,7.0,16.0,34,0.00,,,0.00,425.000000,,2013-06-28 00:26:00,
2013-06-27 18:34:00,86.0,56.0,26.72,NE,38,11.0,19.0,36,0.00,,,0.00,381.000000,,2013-06-28 00:34:00,
2013-06-27 18:44:00,86.0,56.0,26.72,NE,38,11.0,19.0,36,0.00,,,0.00,381.000000,,2013-06-28 00:44:00,
2013-06-27 18:56:00,85.0,56.0,26.72,NE,37,11.0,19.0,37,0.00,,,0.00,336.000000,,2013-06-28 00:56:00,
2013-06-27 19:04:00,84.0,56.0,26.73,NE,42,13.0,22.0,38,0.00,,,0.00,294.000000,,2013-06-28 01:04:00,
2013-06-27 19:13:00,84.0,56.0,26.73,NE,42,13.0,22.0,38,0.00,,,0.00,294.000000,,2013-06-28 01:13:00,
2013-06-27 19:24:00,84.0,56.0,26.73,North,10,7.0,15.0,38,0.00,,,0.00,246.000000,,2013-06-28 01:24:00,
2013-06-27 19:35:00,83.0,55.0,26.74,NNE,30,10.0,21.0,38,0.00,,,0.00,193.000000,,2013-06-28 01:35:00,
2013-06-27 19:45:00,83.0,55.0,26.74,NNE,30,10.0,21.0,38,0.00,,,0.00,193.000000,,2013-06-28 01:45:00,
2013-06-27 19:56:00,82.0,54.0,26.74,NE,53,11.0,21.0,38,0.00,,,0.00,139.000000,,2013-06-28 01:56:00,
2013-06-27 20:04:00,82.0,55.0,26.75,NW,319,8.0,15.0,40,0.00,,,0.00,90.000000,,2013-06-28 02:04:00,
2013-06-27 20:15:00,82.0,55.0,26.75,NW,319,8.0,15.0,40,0.00,,,0.00,90.000000,,2013-06-28 02:15:00,
2013-06-27 20:26:00,81.0,54.0,26.75,NNE,19,7.0,15.0,40,0.00,,,0.00,51.000000,,2013-06-28 02:26:00,
2013-06-27 20:35:00,79.0,54.0,26.75,NE,43,6.0,14.0,42,0.00,,,0.00,12.000000,,2013-06-28 02:35:00,
2013-06-27 20:47:00,79.0,54.0,26.75,NE,43,6.0,14.0,42,0.00,,,0.00,12.000000,,2013-06-28 02:47:00,
2013-06-27 20:57:00,78.0,54.0,26.75,NNW,331,7.0,12.0,43,0.00,,,0.00,7.000000,,2013-06-28 02:57:00,
2013-06-27 21:04:00,77.0,55.0,26.76,North,355,8.0,12.0,46,0.00,,,0.00,0.000000,,2013-06-28 03:04:00,
2013-06-27 21:14:00,77.0,55.0,26.76,North,355,8.0,12.0,46,0.00,,,0.00,0.000000,,2013-06-28 03:14:00,
2013-06-27 21:26:00,76.0,54.0,26.76,ENE,58,8.0,12.0,47,0.00,,,0.00,0.000000,,2013-06-28 03:26:00,
2013-06-27 21:36:00,76.0,54.0,26.77,North,350,6.0,10.0,47,0.00,,,0.00,0.000000,,2013-06-28 03:36:00,
2013-06-27 21:44:00,76.0,54.0,26.77,North,350,6.0,10.0,47,0.00,,,0.00,0.000000,,2013-06-28 03:44:00,
2013-06-27 21:56:00,76.0,55.0,26.78,NW,325,6.0,11.0,48,0.00,,,0.00,0.000000,,2013-06-28 03:56:00,
2013-06-27 22:02:00,76.0,54.0,26.78,NNE,13,6.0,11.0,47,0.00,,,0.00,0.000000,,2013-06-28 04:02:00,
2013-06-27 22:11:00,76.0,54.0,26.78,NNE,13,6.0,11.0,47,0.00,,,0.00,0.000000,,2013-06-28 04:11:00,
2013-06-27 22:22:00,76.0,54.0,26.78,NW,326,6.0,9.0,46,0.00,,,0.00,0.000000,,2013-06-28 04:22:00,
2013-06-27 22:33:00,75.0,53.0,26.78,NW,317,7.0,11.0,46,0.00,,,0.00,0.000000,,2013-06-28 04:33:00,
2013-06-27 22:43:00,75.0,53.0,26.78,NW,317,7.0,11.0,46,0.00,,,0.00,0.000000,,2013-06-28 04:43:00,
2013-06-27 22:53:00,75.0,53.0,26.79,NE,42,7.0,11.0,47,0.00,,,0.00,0.000000,,2013-06-28 04:53:00,
2013-06-27 23:01:00,74.0,53.0,26.79,North,360,4.0,16.0,48,0.00,,,0.00,0.000000,,2013-06-28 05:01:00,
2013-06-27 23:11:00,74.0,53.0,26.79,North,360,4.0,16.0,48,0.00,,,0.00,0.000000,,2013-06-28 05:11:00,
2013-06-27 23:22:00,73.0,52.0,26.79,North,355,5.0,9.0,48,0.00,,,0.00,0.000000,,2013-06-28 05:22:00,
2013-06-27 23:33:00,73.0,53.0,26.79,NNW,331,6.0,10.0,49,0.00,,,0.00,0.000000,,2013-06-28 05:33:00,
2013-06-27 23:43:00,73.0,53.0,26.79,NNW,331,6.0,10.0,49,0.00,,,0.00,0.000000,,2013-06-28 05:43:00,
2013-06-27 23:53:00,72.0,52.0,26.79,NNW,327,6.0,10.0,50,0.00,,,0.00,0.000000,,2013-06-28 05:53:00,